Waarnemingen

Advertentie
Mijn weer
Tjakaape, Zweden (2141): temperatuur & dauwpunt: 15.10.2017 10:00:00 - 21.10.2017 10:00:00 (CEST)Tjakaape, Zweden (2141): windsnelheid & windstoten: 15.10.2017 10:00:00 - 21.10.2017 10:00:00 (CEST)Tjakaape, Zweden (2141): windrichting: 15.10.2017 10:00:00 - 21.10.2017 10:00:00 (CEST)Tjakaape, Zweden (2141): luchtdruk: 15.10.2017 10:00:00 - 21.10.2017 10:00:00 (CEST)Tjakaape, Zweden (2141): zicht: 15.10.2017 10:00:00 - 21.10.2017 10:00:00 (CEST)Tjakaape, Zweden (2141): neerslag: 15.10.2017 10:00:00 - 21.10.2017 10:00:00 (CEST)
Datum & Tijd tt [°C] td [°C] ff [km/u] ff [kn] fx [km/u] fx [kn] dd ppp [hPa] vv [km] rr [mm]
21.10.2017 10:00:00 -4,6 -4,8 4 2 11 6 W 1024,6 9 0,0
21.10.2017 09:00:00 -4,3 -4,6 4 2 14 8 W 1024,5 5 0,1
21.10.2017 08:00:00 -4,5 -4,6 7 4 11 6 W 1024,5 8 0,0
21.10.2017 07:00:00 -4,5 -4,8 7 4 14 8 W 1024,6 9 0,0
21.10.2017 06:00:00 -4,5 -4,6 7 4 14 8 W 1024,7 35 0,0
21.10.2017 05:00:00 -4,4 -4,7 7 4 14 8 W 1024,9 45 0,0
21.10.2017 04:00:00 -4,5 -4,8 7 4 14 8 W 1025,1 45 0,0
21.10.2017 03:00:00 -4,6 -4,9 7 4 14 8 W 1025,4 14 0,0
21.10.2017 02:00:00 -4,6 -4,9 7 4 14 8 W 1025,6 17 0,1
21.10.2017 01:00:00 -4,9 -5,2 7 4 14 8 W 1026,0 1,5 0,0
21.10.2017 00:00:00 -5,2 -5,6 4 2 11 6 WZW 1026,4 0,7 0,0
20.10.2017 23:00:00 -5,7 -6,1 7 4 11 6 WZW 1026,7 2,9 0,0
20.10.2017 22:00:00 -5,0 -5,2 7 4 14 8 ZW 1026,6 0,5 0,0
20.10.2017 21:00:00 -6,4 -6,8 4 2 7 4 ZW 1027,2 0,4 0,0
20.10.2017 20:00:00 -7,3 -7,8 4 2 7 4 ZZW 1027,4 50 0,0
20.10.2017 19:00:00 -7,5 -7,8 4 2 4 2 ZZW 1027,4 50 0,0
20.10.2017 18:00:00 -7,4 -8,1 0 0 4 2 N 1027,4 50 0,0
20.10.2017 17:00:00 -4,3 -5,5 4 2 4 2 Z 1026,8 50 0,0
20.10.2017 16:00:00 -2,4 -4,3 0 0 7 4 N 1026,5 50 0,0
20.10.2017 15:00:00 -2,5 -4,1 7 4 11 6 NNO 1026,5 50 0,0
20.10.2017 14:00:00 -3,0 -4,2 7 4 7 4 ONO 1026,7 45 0,0
20.10.2017 13:00:00 -2,7 -3,5 4 2 11 6 NNO 1026,8 1,6 0,0
20.10.2017 12:00:00 -3,2 -3,6 7 4 14 8 ONO 1026,7 1,3 0,1
20.10.2017 11:00:00 -3,4 -3,5 11 6 18 10 ONO 1026,2 5 0,0
20.10.2017 10:00:00 -3,4 -3,5 14 8 22 12 ONO 1025,8 8 0,0
20.10.2017 09:00:00 -2,8 -3,1 7 4 22 12 NO 1024,9 45 0,0
20.10.2017 08:00:00 -2,8 -2,9 14 8 25 14 NO 1024,3 40 0,0
20.10.2017 07:00:00 -2,4 -2,8 14 8 25 14 NO 1023,7 50 0,0
20.10.2017 06:00:00 -1,5 -1,6 18 10 25 14 NO 1023,1 50 0,0
20.10.2017 05:00:00 -1,3 -1,3 18 10 22 12 NNO 1023,0 0,5 0,0
20.10.2017 04:00:00 -1,1 -1,4 14 8 25 14 N 1022,4 30 0,0
20.10.2017 03:00:00 -1,2 -2,0 14 8 18 10 N 1022,0 40 0,0
20.10.2017 02:00:00 -1,8 -3,8 4 2 14 8 NNW 1021,8 50 0,0
20.10.2017 01:00:00 -1,9 -4,7 7 4 11 6 N 1021,4 50 0,0
20.10.2017 00:00:00 -3,2 -4,8 4 2 11 6 N 1021,4 45 0,0
19.10.2017 23:00:00 -1,2 -4,0 7 4 11 6 N 1020,8 50 0,0
19.10.2017 22:00:00 -2,1 -4,1 4 2 7 4 WNW 1020,7 50 0,0
19.10.2017 21:00:00 -1,0 -3,7 4 2 11 6 NNW 1020,1 50 0,0
19.10.2017 20:00:00 -0,9 -3,6 7 4 11 6 WNW 1019,9 50 0,0
19.10.2017 19:00:00 -1,6 -4,1 7 4 11 6 WNW 1019,6 50 0,0
19.10.2017 18:00:00 0,2 -3,4 7 4 11 6 NNW 1019,2 50 0,0
19.10.2017 17:00:00 1,2 -3,7 7 4 14 8 NW 1018,9 50 0,0
19.10.2017 16:00:00 2,9 -3,5 11 6 14 8 NNW 1018,2 45 0,0
19.10.2017 15:00:00 3,0 -4,9 7 4 14 8 NW 1018,2 45 0,0
19.10.2017 14:00:00 2,5 -3,2 7 4 14 8 W 1018,1 45 0,0
19.10.2017 13:00:00 1,5 -3,2 4 2 14 8 WNW 1017,9 45 0,0
19.10.2017 12:00:00 0,9 -2,9 4 2 11 6 WNW 1017,7 45 0,0
19.10.2017 11:00:00 0,4 -3,0 7 4 14 8 NW 1017,7 45 0,0
19.10.2017 10:00:00 0,5 -2,5 7 4 11 6 W 1017,2 45 0,0
19.10.2017 09:00:00 -0,7 -3,1 7 4 11 6 NW 1016,7 50 0,0
19.10.2017 08:00:00 0,0 -2,7 7 4 14 8 NW 1016,1 50 0,0
19.10.2017 07:00:00 -0,7 -2,4 7 4 11 6 WNW 1015,8 45 0,0
19.10.2017 06:00:00 -0,9 -2,3 7 4 11 6 WNW 1015,3 50 0,0
19.10.2017 05:00:00 -1,1 -2,5 7 4 14 8 W 1014,9 50 0,0
19.10.2017 04:00:00 -0,8 -2,5 7 4 14 8 NW 1014,4 45 0,0
19.10.2017 03:00:00 -0,6 -2,3 11 6 14 8 WNW 1013,8 50 0,0
19.10.2017 02:00:00 -0,8 -2,1 7 4 14 8 NNW 1013,1 50 0,0
19.10.2017 01:00:00 -0,7 -1,8 7 4 14 8 NW 1012,7 50 0,0
19.10.2017 00:00:00 -0,6 -1,4 7 4 14 8 NW 1012,0 50 0,0
18.10.2017 23:00:00 -0,6 -1,3 7 4 14 8 NW 1011,5 50 0,0
18.10.2017 22:00:00 -0,3 -0,7 7 4 11 6 NW 1010,8 50 0,0
18.10.2017 21:00:00 0,8 -0,1 7 4 22 12 N 1010,0 50 0,0
18.10.2017 20:00:00 0,7 0,3 14 8 25 14 N 1009,1 18 0,2
18.10.2017 19:00:00 1,8 -0,8 14 8 22 12 NNW 1008,0 45 0,0
18.10.2017 18:00:00 2,3 -0,6 11 6 18 10 WNW 1007,1 50 0,0
18.10.2017 17:00:00 1,9 0,0 4 2 25 14 NW 1006,6 45 0,0
18.10.2017 16:00:00 2,5 0,1 7 4 14 8 WNW 1005,8 50 0,0
18.10.2017 15:00:00 3,5 0,7 7 4 14 8 WNW 1004,9 45 0,0
18.10.2017 14:00:00 2,6 1,0 7 4 14 8 NW 1004,4 45 0,0
18.10.2017 13:00:00 2,2 1,8 7 4 18 10 N 1003,8 45 0,0
18.10.2017 12:00:00 0,8 0,7 11 6 25 14 N 1003,3 7 0,0
18.10.2017 11:00:00 0,2 0,2 14 8 25 14 N 1002,5 4,9 0,0
18.10.2017 10:00:00 0,0 0,0 11 6 18 10 N 1001,7 1,2 0,0
18.10.2017 09:00:00 -0,3 -0,3 7 4 18 10 N 1000,8 7 0,1
18.10.2017 08:00:00 -0,2 -0,8 11 6 18 10 N 999,9 2,0 0,0
18.10.2017 07:00:00 -1,9 -2,0 7 4 7 4 N 999,6 14 0,0
18.10.2017 06:00:00 -3,0 -3,1 7 4 7 4 NW 999,5 50 0,0
18.10.2017 05:00:00 -4,8 -5,1 4 2 7 4 WNW 999,6 50 0,0
18.10.2017 04:00:00 -1,9 -2,2 4 2 11 6 ZW 999,2 50 0,0
18.10.2017 03:00:00 -1,6 -1,7 7 4 11 6 WNW 998,9 50 0,0
18.10.2017 02:00:00 -1,9 -2,3 7 4 11 6 NW 999,2 50 0,0
18.10.2017 01:00:00 -1,3 -1,4 7 4 11 6 WNW 999,2 50 0,0
18.10.2017 00:00:00 -2,4 -2,7 4 2 11 6 W 999,6 50 0,0
17.10.2017 23:00:00 -1,2 -1,3 7 4 11 6 W 999,5 50 0,0
17.10.2017 22:00:00 -0,8 -1,2 7 4 11 6 W 999,6 50 0,0
17.10.2017 21:00:00 -0,2 -0,9 7 4 11 6 WNW 999,6 50 0,0
17.10.2017 20:00:00 -1,5 -1,9 0 0 7 4 N 1000,0 50 0,0
17.10.2017 19:00:00 -1,2 -2,0 0 0 14 8 N 1000,2 45 0,0
17.10.2017 18:00:00 0,9 -0,6 11 6 14 8 W 1000,1 50 0,0
17.10.2017 17:00:00 2,3 -0,1 7 4 22 12 W 1000,7 50 0,0
17.10.2017 16:00:00 3,7 0,2 11 6 22 12 W 1000,8 45 0,0
17.10.2017 15:00:00 4,2 0,3 14 8 25 14 W 1001,2 45 0,0
17.10.2017 14:00:00 4,0 0,5 11 6 25 14 W 1001,8 45 0,0
17.10.2017 13:00:00 3,9 0,8 14 8 25 14 WZW 1002,2 45 0,0
17.10.2017 12:00:00 2,6 0,3 11 6 18 10 W 1002,7 50 0,0
17.10.2017 11:00:00 1,9 0,1 11 6 22 12 W 1003,0 50 0,0
17.10.2017 10:00:00 1,0 -0,5 11 6 18 10 W 1003,2 50 0,0
17.10.2017 09:00:00 1,1 -0,5 7 4 22 12 WZW 1003,1 50 0,0
17.10.2017 08:00:00 1,2 -0,6 11 6 25 14 W 1003,0 50 0,0
17.10.2017 07:00:00 1,6 -0,3 11 6 25 14 W 1003,2 50 0,0
17.10.2017 06:00:00 1,3 -0,5 14 8 25 14 W 1003,0 50 0,0
17.10.2017 05:00:00 1,7 -0,4 14 8 29 16 W 1002,8 50 0,0
17.10.2017 04:00:00 1,7 -0,4 14 8 25 14 W 1002,6 50 0,0
17.10.2017 03:00:00 1,9 0,0 14 8 32 18 W 1002,6 50 0,0
17.10.2017 02:00:00 1,8 0,0 18 10 36 19 W 1002,1 50 0,0
17.10.2017 01:00:00 2,1 0,0 18 10 36 19 W 1001,6 50 0,0
17.10.2017 00:00:00 2,1 0,0 22 12 36 19 W 1000,8 50 0,0
16.10.2017 23:00:00 2,3 -0,3 22 12 36 19 W 1000,2 50 0,0
16.10.2017 22:00:00 2,3 -0,8 22 12 36 19 W 999,5 50 0,0
16.10.2017 21:00:00 2,4 -1,0 22 12 40 21 W 999,1 50 0,0
16.10.2017 20:00:00 2,2 -1,1 18 10 36 19 W 999,0 50 0,0
16.10.2017 19:00:00 2,6 -0,5 22 12 43 23 W 998,6 50 0,0
16.10.2017 18:00:00 3,1 -0,5 22 12 50 27 W 997,9 50 0,0
16.10.2017 17:00:00 3,7 -0,7 22 12 50 27 W 997,0 50 0,0
16.10.2017 16:00:00 4,4 -0,4 25 14 54 29 WNW 996,1 50 0,0
16.10.2017 15:00:00 4,9 -0,1 29 16 61 33 W 995,4 45 0,0
16.10.2017 14:00:00 5,3 0,5 32 18 61 33 W 993,8 45 0,0
16.10.2017 13:00:00 4,8 0,7 29 16 54 29 WNW 992,8 50 0,0
16.10.2017 12:00:00 5,3 1,6 25 14 54 29 WNW 991,5 45 0,0
16.10.2017 11:00:00 4,2 1,9 29 16 61 33 W 990,0 50 0,0
16.10.2017 10:00:00 4,2 3,0 25 14 58 31 W 988,3 45 0,2
16.10.2017 09:00:00 3,9 3,9 25 14 40 21 ZZW 988,2 9 0,0
16.10.2017 08:00:00 3,0 3,0 22 12 40 21 Z 989,9 1,7 0,1
16.10.2017 07:00:00 2,7 2,7 22 12 40 21 Z 992,1 0,5 0,0
16.10.2017 06:00:00 1,9 1,9 22 12 40 21 ZZO 993,9 5 1,0
16.10.2017 05:00:00 1,5 1,4 25 14 40 21 ZZO 996,3 8 0,9
16.10.2017 04:00:00 1,1 1,1 18 10 32 18 ZZO 998,5 9 1,0
16.10.2017 03:00:00 1,4 1,4 14 8 29 16 ZZO 1000,6 11 0,6
16.10.2017 02:00:00 0,9 0,9 11 6 22 12 ZZO 1002,3 3,6 0,4
16.10.2017 01:00:00 0,6 0,6 11 6 18 10 ZZO 1003,8 0,6 0,0
16.10.2017 00:00:00 0,7 0,7 7 4 14 8 Z 1004,8 0,5 0,0
15.10.2017 23:00:00 0,7 0,7 7 4 14 8 ZZO 1005,5 2,6 0,0
15.10.2017 22:00:00 1,1 1,1 7 4 14 8 Z 1006,4 45 0,0
15.10.2017 21:00:00 1,4 1,4 11 6 14 8 ZZW 1007,4 50 0,0
15.10.2017 20:00:00 1,5 1,4 7 4 14 8 Z 1007,4 50 0,0
15.10.2017 19:00:00 2,0 1,7 7 4 11 6 ZZW 1008,1 50 0,0
15.10.2017 18:00:00 2,1 1,7 7 4 14 8 ZW 1008,2 50 0,0
15.10.2017 17:00:00 3,1 2,5 7 4 18 10 WZW 1008,5 50 0,0
15.10.2017 16:00:00 4,8 3,5 7 4 14 8 ZW 1008,1 45 0,0
15.10.2017 15:00:00 4,7 3,7 11 6 18 10 ZW 1008,1 45 0,0
15.10.2017 14:00:00 4,7 4,0 11 6 18 10 WZW 1007,6 45 0,0
15.10.2017 13:00:00 4,2 4,2 11 6 14 8 WZW 1007,8 45 0,0
15.10.2017 12:00:00 3,7 3,7 7 4 14 8 W 1007,4 50 0,0
15.10.2017 11:00:00 2,2 2,2 4 2 11 6 ZW 1007,6 45 0,0
15.10.2017 10:00:00 1,4 1,4 7 4 11 6 ZW 1007,1 30 0,0

tt = temperatuur
td = dauwpunt
ff = windsnelheid
fx = windstoten
dd = windrichting
ppp = luchtdruk
vv = zicht
rr = neerslag

Weerstations in de omgeving